[[{"header":{"parameterUnit":"m.s-1","parameterCategory":1,"la1":30.2991,"la2":30.254,"lo1":-89.0895,"lo2":-89.0444,"dy":0.0017,"dx":0.0017,"nx":28,"ny":28,"refTime":"2025-05-15T03:00:00:Z","depth":0,"parameterNumber":2,"parameterNumberName":"U-component_of_WINDS"},"data":[0,0,0,0,0,0,0,0,0,0,0,0,0,0,0,0,0,0,0,0,0,0,0,0,0,0,0,0,0,0,0,0,0,0,0,0,0,0,0,0,0,0,0,0,0,0,0,0,0,0,0,0,0,0,0,0,0,0,1.6572,1.6573,0,1.6617,1.6617,1.6618,1.657,1.6568,1.6566,1.6564,1.6611,1.6613,1.6616,0,0,0,0,0,0,0,0,0,0,0,0,0,1.6444,1.6447,1.6572,1.6573,1.6573,1.6617,1.6617,1.6618,1.657,1.6568,1.6565,1.6563,1.661,1.6613,1.6617,0,0,0,0,0,0,0,0,0,0,0,0,0,1.6496,1.6448,1.6572,1.6554,1.6553,1.6617,1.6617,1.6618,1.657,1.6568,1.6565,1.6562,1.6608,1.6613,1.6617,1.67,0,0,1.6631,1.6633,0,0,0,0,0,0,0,0,1.6493,1.65,1.6556,1.6556,1.6555,1.6585,1.6589,1.6646,1.6571,1.6564,1.6564,1.6561,1.6604,1.6609,1.6623,1.6702,1.6704,1.6631,1.6634,1.6636,1.6637,0,0,0,0,0,0,0,1.6489,1.6498,1.659,1.6557,1.6556,1.6544,1.6548,1.66,1.6599,1.6564,1.6561,1.6567,1.6603,1.6619,1.6624,1.6705,1.6631,1.6635,1.6638,1.6639,1.6853,1.6856,0,0,0,0,0,0,1.6488,1.6495,1.6588,1.6591,1.6516,1.6549,1.6553,1.6578,1.6598,1.6599,1.6569,1.6565,1.6613,1.6619,1.6626,1.6724,1.6636,1.664,1.6642,1.685,1.6854,1.6857,0,0,0,0,0,0,1.6485,1.6496,1.6587,1.6542,1.6553,1.6554,1.6582,1.658,1.6596,1.6602,1.6602,1.6586,1.6611,1.6619,1.6682,1.6725,1.6642,1.6646,1.6847,1.6851,1.6855,1.6921,0,0,0,0,0,0,1.6482,1.6496,1.6528,1.6543,1.6555,1.6642,1.6584,1.6583,1.6604,1.6598,1.6618,1.6618,1.6609,1.6675,1.6686,1.6729,1.6649,1.6843,1.6849,1.6854,1.6915,1.6927,1.6937,0,0,0,0,0,1.6477,1.6544,1.6529,1.6541,1.6595,1.6645,1.6652,1.664,1.6608,1.6639,1.6643,1.6617,1.6718,1.6682,1.6694,1.6739,1.684,1.6847,1.6854,1.691,1.6925,1.6937,0,0,0,0,0,0,1.6534,1.6546,1.653,1.6604,1.6624,1.6637,1.6676,1.6657,1.6686,1.668,1.6664,1.6669,1.6735,1.6743,1.6703,1.682,1.6774,1.6783,1.6812,1.6827,1.6838,1.6834,1.6653,0,0,0,0,0,1.6555,1.6594,1.6603,1.6667,1.6678,1.6676,1.6697,1.6686,1.6706,1.6714,1.6723,1.6743,1.6779,1.6803,1.6837,1.6915,1.6919,1.6952,1.6963,1.6973,1.6981,1.7023,1.7038,1.6879,1.6879,1.6879,0,0,1.6599,1.661,1.6636,1.6679,1.6693,1.6734,1.6683,1.6729,1.6759,1.6721,1.6781,1.6787,1.6809,1.688,1.6911,1.6889,1.7026,1.6981,1.6989,1.6992,1.7032,1.7047,1.706,1.6884,1.6883,1.6882,0,0,1.67,1.6713,1.6768,1.6783,1.6804,1.6802,1.6816,1.6831,1.6834,1.6894,1.6866,1.6901,1.6964,1.698,1.6997,1.7103,1.7081,1.7115,1.7174,1.7215,1.7227,1.7238,1.7276,1.729,1.7123,1.7123,1.7123,0,1.6752,1.6812,1.6798,1.6846,1.6866,1.6833,1.6889,1.6904,1.6936,1.695,1.6923,1.7001,1.7013,1.7087,1.7113,1.7127,1.7142,1.7113,1.7227,1.7238,1.7248,1.7283,1.7298,1.7127,1.7127,1.7126,1.7126,0,1.6875,1.6917,1.6959,1.6991,1.7015,1.7066,1.706,1.7086,1.7073,1.7074,1.7134,1.7147,1.7183,1.7199,1.7187,1.7272,1.7257,1.7229,1.7182,1.7267,1.73,1.7314,1.7133,1.7131,1.713,1.7129,0,0,1.7013,1.7036,1.7052,1.7065,1.7086,1.7119,1.7169,1.7203,1.7226,1.7248,1.7289,1.7343,1.7317,1.7335,1.7325,1.7361,1.7444,1.7328,1.7329,1.7349,1.7537,1.7558,1.7574,1.7429,1.7431,1.7433,1.7535,0,1.7115,1.7201,1.719,1.7272,1.7311,1.728,1.7323,1.7341,1.7343,1.7376,1.7377,1.7415,1.7378,1.7389,1.7423,1.7427,1.7481,1.7419,1.7467,1.7469,1.7463,1.7592,1.7614,1.771,1.7548,1.755,1.7552,0,1.7245,1.7272,1.7359,1.7373,1.7389,1.7428,1.7459,1.7491,1.751,1.7508,1.7529,1.7512,1.7561,1.7513,1.7581,1.7538,1.7557,1.7562,1.7565,1.7569,1.7516,1.76,1.774,1.7754,1.7573,1.7571,1.7569,0,1.7337,1.7395,1.7454,1.7467,1.7486,1.7514,1.7523,1.7539,1.7561,1.7587,1.7601,1.7632,1.765,1.7675,1.7667,1.7633,1.7736,1.7687,1.7736,1.7736,1.7759,1.7758,1.7905,1.7771,1.7771,1.7771,1.7771,0,1.7451,1.7505,1.7496,1.7533,1.7592,1.7578,1.7637,1.7643,1.7657,1.7694,1.7669,1.7704,1.7691,1.7725,1.7719,1.7775,1.7784,1.7784,1.7781,1.7786,1.7786,1.7798,1.7791,1.7775,1.7774,1.7773,1.7772,0,1.7564,1.756,1.7623,1.7635,1.764,1.7683,1.7694,1.7728,1.7727,1.7774,1.7784,1.7783,1.7821,1.7816,1.7859,1.7854,1.7925,1.7914,1.7919,1.7916,1.7965,1.7961,1.8125,1.8146,1.7999,1.8,1.8001,0,1.7638,1.7679,1.7696,1.7718,1.773,1.7767,1.7788,1.7776,1.7799,1.7824,1.7855,1.7891,1.792,1.7983,1.7986,1.8018,1.8008,1.8064,1.8013,1.8016,1.8009,1.8007,1.8011,1.8074,1.8076,1.8077,1.8078,0,1.7768,1.7764,1.7796,1.7828,1.7854,1.7878,1.79,1.792,1.7909,1.7937,1.7976,1.7998,1.8041,1.8078,1.8108,1.8117,1.8096,1.8094,1.8107,1.8112,1.8113,1.8113,1.7946,1.809,1.8089,1.8088,1.8087,1.8087,1.7864,1.7898,1.7916,1.7952,1.7967,1.7988,1.802,1.8023,1.8056,1.8091,1.8081,1.8126,1.8143,1.8181,1.8194,1.8228,1.8207,1.8226,1.8231,1.8236,1.8242,1.8107,1.8233,1.8233,1.8233,1.8232,1.8232,0,1.7993,1.8002,1.8036,1.8067,1.8095,1.8073,1.8095,1.8121,1.816,1.8178,1.8206,1.8251,1.8286,1.8292,1.8325,1.8351,1.8342,1.836,1.8358,1.836,1.8258,1.8244,1.8367,1.8367,1.8367,1.8367,1.8367,1.8367,1.8063,1.8121,1.8119,1.8183,1.8192,1.8235,1.825,1.8269,1.8283,1.8334,1.8363,1.8367,1.8379,1.8413,1.8444,1.8445,1.8458,1.848,1.8477,1.8381,1.8368,1.8355,1.8341,1.8483,1.8483,1.8576,1.8577,1.8577]},{"header":{"parameterUnit":"m.s-1","parameterCategory":1,"la1":30.2991,"la2":30.254,"lo1":-89.0895,"lo2":-89.0444,"dy":0.0017,"dx":0.0017,"nx":28,"ny":28,"refTime":"2025-05-15T03:00:00:Z","depth":0,"parameterNumber":3,"parameterNumberName":"V-component_of_WINDS"},"data":[0,0,0,0,0,0,0,0,0,0,0,0,0,0,0,0,0,0,0,0,0,0,0,0,0,0,0,0,0,0,0,0,0,0,0,0,0,0,0,0,0,0,0,0,0,0,0,0,0,0,0,0,0,0,0,0,0,0,5.3687,5.3689,0,5.3829,5.383,5.3832,5.3808,5.3805,5.3803,5.38,5.3939,5.3945,5.3951,0,0,0,0,0,0,0,0,0,0,0,0,0,5.3391,5.3397,5.3687,5.3689,5.3691,5.3828,5.383,5.3832,5.3808,5.3805,5.3802,5.3799,5.3937,5.3944,5.3952,0,0,0,0,0,0,0,0,0,0,0,0,0,5.3525,5.3399,5.3687,5.3695,5.3698,5.3828,5.383,5.3833,5.3809,5.3805,5.3801,5.3798,5.3935,5.3944,5.3953,5.4082,0,0,5.398,5.3984,0,0,0,0,0,0,0,0,5.3517,5.3536,5.3692,5.3695,5.3698,5.3797,5.3777,5.3916,5.381,5.3766,5.38,5.3796,5.3894,5.3907,5.3941,5.4088,5.4094,5.3981,5.3986,5.399,5.3993,0,0,0,0,0,0,0,5.3508,5.3529,5.3743,5.3695,5.3698,5.369,5.3705,5.3803,5.3849,5.377,5.3768,5.3786,5.3895,5.3932,5.3944,5.4096,5.398,5.3988,5.3994,5.3998,5.4356,5.436,0,0,0,0,0,0,5.3497,5.3522,5.3738,5.3747,5.3597,5.3699,5.3715,5.3769,5.3848,5.3857,5.3789,5.3784,5.3919,5.3934,5.3949,5.4106,5.399,5.3998,5.4004,5.4352,5.4357,5.4362,0,0,0,0,0,0,5.3491,5.3516,5.3733,5.3634,5.3661,5.3708,5.3768,5.3773,5.3811,5.3862,5.387,5.3819,5.3916,5.3936,5.4049,5.411,5.4002,5.4011,5.4347,5.4354,5.4359,5.442,0,0,0,0,0,0,5.3482,5.3514,5.3565,5.3636,5.3667,5.3833,5.3772,5.3779,5.3827,5.3822,5.3893,5.3901,5.3915,5.4036,5.4058,5.4121,5.4018,5.4342,5.435,5.4357,5.4413,5.4428,5.4441,0,0,0,0,0,5.3472,5.3575,5.3568,5.3594,5.3732,5.3836,5.3854,5.387,5.3832,5.3883,5.3916,5.3898,5.41,5.4048,5.4073,5.4139,5.4338,5.4348,5.4357,5.4407,5.4425,5.444,0,0,0,0,0,0,5.3509,5.3585,5.3577,5.3707,5.3766,5.3832,5.3897,5.3889,5.3958,5.395,5.3966,5.3982,5.4097,5.4128,5.4069,5.4268,5.4213,5.4228,5.4243,5.4261,5.4274,5.4264,5.4025,0,0,0,0,0,5.3532,5.3613,5.3674,5.3783,5.3813,5.385,5.3896,5.3904,5.3964,5.3988,5.403,5.4087,5.4164,5.4214,5.4287,5.4417,5.4432,5.4475,5.4488,5.4499,5.4512,5.4584,5.4603,5.4392,5.4392,5.4392,0,0,5.3581,5.3633,5.3683,5.3792,5.3838,5.392,5.3871,5.3959,5.402,5.4001,5.4111,5.4144,5.4209,5.4332,5.4387,5.4362,5.4574,5.4511,5.452,5.4527,5.4595,5.4615,5.4633,5.4399,5.4397,5.4396,0,0,5.3713,5.376,5.3856,5.3904,5.3976,5.4,5.4023,5.4091,5.4112,5.4223,5.4211,5.4282,5.4413,5.4461,5.4502,5.4651,5.4638,5.4674,5.4746,5.4816,5.4832,5.4847,5.4901,5.492,5.4687,5.4687,5.4687,0,5.3764,5.3889,5.3906,5.3997,5.4045,5.4034,5.413,5.4175,5.4266,5.4299,5.4269,5.4434,5.4477,5.461,5.4647,5.4681,5.4707,5.4667,5.4829,5.4844,5.4858,5.491,5.493,5.4691,5.469,5.469,5.469,0,5.3949,5.4036,5.4104,5.4195,5.4251,5.4343,5.4373,5.4427,5.4429,5.4456,5.4569,5.462,5.4704,5.4736,5.4738,5.487,5.4852,5.4826,5.4771,5.4882,5.4931,5.4951,5.4697,5.4695,5.4694,5.4693,0,0,5.4108,5.4208,5.4233,5.4274,5.4352,5.4418,5.451,5.4594,5.464,5.4702,5.478,5.4891,5.4867,5.4914,5.4921,5.4982,5.5098,5.4948,5.495,5.4975,5.5247,5.5267,5.529,5.5089,5.5093,5.5096,5.5242,0,5.4248,5.4413,5.4431,5.4577,5.4657,5.4648,5.4727,5.4783,5.481,5.488,5.4909,5.4989,5.4951,5.4979,5.5039,5.5072,5.5153,5.5061,5.516,5.5164,5.5146,5.5315,5.5337,5.5472,5.5261,5.5264,5.5266,0,5.4433,5.4504,5.4659,5.4727,5.4761,5.4833,5.4911,5.4979,5.5041,5.5056,5.5109,5.5108,5.5201,5.5143,5.5271,5.5209,5.525,5.5272,5.5277,5.5288,5.5222,5.5331,5.5515,5.5536,5.5296,5.5294,5.5292,0,5.4535,5.4668,5.4779,5.4814,5.4895,5.4946,5.4982,5.5041,5.509,5.5157,5.519,5.5266,5.5308,5.5367,5.5386,5.5342,5.5514,5.5457,5.5528,5.5528,5.5566,5.5563,5.576,5.5591,5.5591,5.559,5.559,0,5.4689,5.4785,5.4826,5.4894,5.5,5.5018,5.5122,5.5155,5.5208,5.5281,5.5276,5.5344,5.5366,5.5437,5.5453,5.5557,5.5575,5.5589,5.5592,5.5591,5.5589,5.5618,5.561,5.5596,5.5594,5.5593,5.5592,0,5.4821,5.4852,5.4972,5.504,5.5059,5.5135,5.5192,5.5256,5.5282,5.5375,5.5397,5.5438,5.5522,5.5547,5.5647,5.5658,5.578,5.5774,5.576,5.576,5.583,5.5824,5.6054,5.6085,5.5894,5.5896,5.5898,0,5.4918,5.4992,5.5068,5.5118,5.5156,5.5236,5.5287,5.5307,5.536,5.5437,5.5492,5.5576,5.5644,5.5778,5.5815,5.5892,5.5888,5.5963,5.5899,5.5895,5.589,5.5886,5.5893,5.5975,5.5977,5.5979,5.598,0,5.5087,5.5099,5.5174,5.5255,5.5316,5.538,5.5441,5.5482,5.5511,5.557,5.5657,5.571,5.5813,5.5896,5.5974,5.6008,5.6,5.6,5.6021,5.602,5.6009,5.6017,5.5793,5.5995,5.5993,5.5992,5.5992,5.5991,5.5205,5.5271,5.5335,5.5419,5.5467,5.5525,5.559,5.5624,5.5698,5.5786,5.5792,5.5886,5.5946,5.605,5.6089,5.6161,5.6139,5.6169,5.6177,5.6184,5.619,5.5997,5.6175,5.6175,5.6174,5.6174,5.6174,0,5.5375,5.5416,5.5493,5.558,5.5646,5.5633,5.57,5.5755,5.5839,5.5896,5.5964,5.6064,5.6144,5.6187,5.6267,5.6317,5.6314,5.6337,5.6334,5.6342,5.6205,5.618,5.6337,5.6337,5.6337,5.6337,5.6337,5.6337,5.5471,5.5582,5.5601,5.5735,5.5775,5.5869,5.5908,5.5961,5.6007,5.612,5.6187,5.6216,5.6267,5.6351,5.6423,5.6434,5.6463,5.6489,5.6497,5.6368,5.6352,5.6336,5.6312,5.6495,5.6495,5.6628,5.6629,5.663]}]]